Volver al catálogo

TIANZHOU 10

ActivoCienciaVLEO
NORAD 69049·PAYLOAD·🇨🇳 China

Lanzado May 11, 2026 desde Wenchang Space Launch Site

Loading…

Próximos Pases (próximas 24 horas)

TLE

ActualizadoSource: Space-Track

Época: Sep 14, 2026, 21:42 UTC

1 69049U 26102A   26257.90474193  .00020019  00000-0  24464-3 0  9993
2 69049  41.4676 137.2952 0002677 279.5609  80.4927 15.59940613308012

Sigue TIANZHOU 10 en tiempo real con AllMySat

Download on the App Store